TimeCDT,TemperatureF,Dew PointF,Humidity,Sea Level PressureIn,VisibilityMPH,Wind Direction,Wind SpeedMPH,Gust SpeedMPH,PrecipitationIn,Events,Conditions,WindDirDegrees,DateUTC
12:53 AM,72.0,70.0,93,29.95,10.0,SE,13.8,-,N/A,,Clear,130,2012-10-25 05:53:00
1:53 AM,71.1,69.1,93,29.95,10.0,SE,4.6,-,N/A,,Clear,130,2012-10-25 06:53:00
2:53 AM,70.0,68.0,93,29.95,10.0,ENE,3.5,-,N/A,,Clear,60,2012-10-25 07:53:00
3:53 AM,70.0,68.0,93,29.94,6.0,East,3.5,-,N/A,,Clear,100,2012-10-25 08:53:00
4:43 AM,69.8,69.8,100,29.90,6.0,ESE,5.8,-,N/A,,Mostly Cloudy,120,2012-10-25 09:43:00
4:53 AM,70.0,69.1,97,29.93,6.0,ESE,3.5,-,N/A,,Mostly Cloudy,110,2012-10-25 09:53:00
5:01 AM,69.8,68.0,94,29.90,6.0,ESE,4.6,-,N/A,,Overcast,110,2012-10-25 10:01:00
5:16 AM,69.8,68.0,94,29.90,5.0,ESE,3.5,-,N/A,,Overcast,120,2012-10-25 10:16:00
5:35 AM,69.8,68.0,94,29.90,1.8,ESE,4.6,-,N/A,,Overcast,110,2012-10-25 10:35:00
5:50 AM,69.8,69.8,100,29.90,0.8,ESE,3.5,-,N/A,,Mist,110,2012-10-25 10:50:00
5:53 AM,69.1,69.1,100,29.93,0.8,ESE,4.6,-,N/A,,Mist,110,2012-10-25 10:53:00
6:02 AM,69.8,69.8,100,29.91,1.0,East,4.6,-,N/A,,Mist,100,2012-10-25 11:02:00
6:10 AM,69.8,69.8,100,29.91,0.8,East,4.6,-,N/A,,Mist,100,2012-10-25 11:10:00
6:45 AM,69.8,69.8,100,29.91,0.2,East,4.6,-,N/A,Fog,Fog,100,2012-10-25 11:45:00
6:53 AM,70.0,69.1,97,29.94,0.2,East,3.5,-,N/A,Fog,Fog,100,2012-10-25 11:53:00
7:02 AM,69.8,69.8,100,29.91,0.5,East,3.5,-,N/A,Fog,Fog,100,2012-10-25 12:02:00
7:13 AM,69.8,69.8,100,29.92,1.5,East,4.6,-,N/A,,Overcast,100,2012-10-25 12:13:00
7:24 AM,69.8,69.8,100,29.92,2.5,East,4.6,-,N/A,,Overcast,100,2012-10-25 12:24:00
7:31 AM,69.8,69.8,100,29.92,3.0,East,4.6,-,N/A,,Overcast,100,2012-10-25 12:31:00
7:53 AM,70.0,69.1,97,29.96,4.0,East,4.6,-,N/A,,Overcast,100,2012-10-25 12:53:00
8:34 AM,71.6,69.8,94,29.94,6.0,ESE,4.6,-,N/A,,Overcast,110,2012-10-25 13:34:00
8:53 AM,72.0,71.1,97,29.97,8.0,East,5.8,-,N/A,,Overcast,100,2012-10-25 13:53:00
9:53 AM,79.0,72.0,79,29.98,10.0,North,-9999.0,-,N/A,,Partly Cloudy,0,2012-10-25 14:53:00
10:53 AM,81.0,70.0,69,29.99,10.0,SE,13.8,-,N/A,,Mostly Cloudy,140,2012-10-25 15:53:00
11:08 AM,82.4,69.8,66,29.97,10.0,SE,11.5,-,N/A,,Mostly Cloudy,130,2012-10-25 16:08:00
11:46 AM,84.2,69.8,62,29.96,10.0,SSE,13.8,-,N/A,,Mostly Cloudy,160,2012-10-25 16:46:00
11:53 AM,84.9,68.0,57,29.98,10.0,SSE,12.7,-,N/A,,Mostly Cloudy,150,2012-10-25 16:53:00
12:53 PM,86.0,66.2,51,29.93,10.0,SSE,11.5,-,N/A,,Mostly Cloudy,160,2012-10-25 17:53:00
1:53 PM,84.0,66.0,55,29.94,10.0,SSE,8.1,-,N/A,,Overcast,150,2012-10-25 18:53:00
2:53 PM,77.0,69.1,76,29.94,10.0,West,8.1,17.3,0.00,Rain,Light Rain,270,2012-10-25 19:53:00
3:53 PM,75.9,72.0,87,29.93,10.0,NW,4.6,-,0.00,,Overcast,310,2012-10-25 20:53:00
4:53 PM,77.0,71.1,82,29.93,10.0,Calm,Calm,-,N/A,,Overcast,0,2012-10-25 21:53:00
5:53 PM,78.1,70.0,76,29.93,10.0,SSW,3.5,-,N/A,,Scattered Clouds,200,2012-10-25 22:53:00
6:53 PM,75.9,71.1,85,29.94,10.0,Calm,Calm,-,0.00,Rain,Light Rain,0,2012-10-25 23:53:00
8:53 PM,75.0,70.0,84,29.95,10.0,South,5.8,-,N/A,,Mostly Cloudy,170,2012-10-26 01:53:00
9:53 PM,73.0,70.0,90,29.96,10.0,SSE,4.6,-,N/A,,Clear,150,2012-10-26 02:53:00
10:53 PM,71.6,69.8,94,29.94,10.0,SSE,3.5,-,N/A,,Clear,150,2012-10-26 03:53:00
11:53 PM,70.0,69.1,97,29.96,10.0,Calm,Calm,-,N/A,,Clear,0,2012-10-26 04:53:00